| time (UTC) | temp C | wind direction | speed KPH | gust KPH | rain 1hr cm | rain 24hr cm | rain mn cm | humidity % | barometer mb |
| 20260509224332 | 16 | 202 | 4.8 | 9.7 | 0.00 | 0.43 | 0.43 | 72 | 1008.1 |
| 20260509223832 | 17 | 159 | 3.2 | 9.7 | 0.00 | 0.43 | 0.43 | 72 | 1008.3 |
| 20260509223352 | 17 | 165 | 4.8 | 9.7 | 0.00 | 0.43 | 0.43 | 72 | 1007.6 |
| 20260509222831 | 17 | 186 | 1.6 | 9.7 | 0.00 | 0.43 | 0.43 | 72 | 1007.0 |
| 20260509222331 | 17 | 174 | 3.2 | 9.7 | 0.00 | 0.43 | 0.43 | 71 | 1006.6 |
| 20260509221827 | 17 | 235 | 3.2 | 6.4 | 0.00 | 0.43 | 0.43 | 71 | 1006.4 |
| 20260509221328 | 17 | 115 | 1.6 | 9.7 | 0.00 | 0.43 | 0.43 | 71 | 1006.3 |
| 20260509220829 | 17 | 204 | 4.8 | 11.3 | 0.00 | 0.43 | 0.43 | 70 | 1006.7 |
| 20260509220329 | 17 | 236 | 1.6 | 11.3 | 0.00 | 0.43 | 0.43 | 71 | 1006.9 |
| 20260509215850 | 17 | 239 | 0.0 | 8.0 | 0.00 | 0.43 | 0.43 | 73 | 1006.5 |
| 20260509215330 | 16 | 186 | 3.2 | 9.7 | 0.00 | 0.43 | 0.43 | 74 | 1005.9 |
| 20260509214831 | 16 | 197 | 3.2 | 12.9 | 0.00 | 0.43 | 0.43 | 74 | 1006.0 |
| 20260509214331 | 16 | 201 | 8.0 | 12.9 | 0.00 | 0.43 | 0.43 | 75 | 1007.0 |
| 20260509213831 | 16 | 199 | 1.6 | 6.4 | 0.00 | 0.43 | 0.43 | 77 | 1008.4 |
| 20260509213312 | 16 | 140 | 3.2 | 8.0 | 0.00 | 0.43 | 0.43 | 77 | 1007.8 |
| 20260509212830 | 16 | 165 | 4.8 | 12.9 | 0.00 | 0.43 | 0.43 | 77 | 1007.1 |
| 20260509212330 | 16 | 153 | 6.4 | 12.9 | 0.00 | 0.43 | 0.43 | 78 | 1006.7 |
| 20260509211828 | 16 | 123 | 3.2 | 9.7 | 0.00 | 0.43 | 0.43 | 78 | 1006.9 |
| 20260509211329 | 16 | 137 | 6.4 | 12.9 | 0.00 | 0.43 | 0.43 | 80 | 1007.6 |
| 20260509210830 | 15 | 130 | 8.0 | 12.9 | 0.00 | 0.43 | 0.43 | 80 | 1007.9 |
| 20260509210330 | 15 | 159 | 6.4 | 11.3 | 0.00 | 0.43 | 0.43 | 81 | 1008.1 |
| 20260509205850 | 15 | 130 | 6.4 | 11.3 | 0.00 | 0.43 | 0.43 | 82 | 1008.0 |
| 20260509205329 | 15 | 134 | 4.8 | 6.4 | 0.00 | 0.43 | 0.43 | 84 | 1008.3 |
| 20260509204830 | 15 | 90 | 4.8 | 6.4 | 0.00 | 0.43 | 0.43 | 84 | 1008.6 |
| 20260509204331 | 15 | 107 | 1.6 | 6.4 | 0.00 | 0.43 | 0.43 | 85 | 1008.7 |
| 20260509203831 | 15 | 86 | 0.0 | 3.2 | 0.00 | 0.43 | 0.43 | 85 | 1008.7 |
| 20260509203313 | 15 | 42 | 0.0 | 0.0 | 0.00 | 0.43 | 0.43 | 85 | 1008.8 |
| 20260509202815 | 15 | 42 | 0.0 | 3.2 | 0.00 | 0.43 | 0.43 | 85 | 1008.9 |
| 20260509202318 | 15 | 355 | 0.0 | 3.2 | 0.00 | 0.43 | 0.43 | 85 | 1008.9 |
| 20260509201820 | 14 | 23 | 0.0 | 4.8 | 0.00 | 0.43 | 0.43 | 85 | 1008.8 |
| 20260509201320 | 14 | 29 | 1.6 | 4.8 | 0.00 | 0.43 | 0.43 | 84 | 1008.6 |
| 20260509200321 | 15 | 61 | 0.0 | 4.8 | 0.00 | 0.43 | 0.43 | 84 | 1008.4 |
| 20260509195822 | 15 | 96 | 1.6 | 4.8 | 0.00 | 0.43 | 0.43 | 84 | 1008.5 |
| 20260509195322 | 15 | 74 | 0.0 | 3.2 | 0.00 | 0.43 | 0.43 | 84 | 1008.6 |
| 20260509194823 | 15 | 78 | 0.0 | 3.2 | 0.00 | 0.43 | 0.43 | 84 | 1008.9 |
| 20260509194323 | 15 | 119 | 0.0 | 3.2 | 0.00 | 0.43 | 0.43 | 83 | 1008.9 |
| 20260509193824 | 15 | 57 | 1.6 | 4.8 | 0.00 | 0.43 | 0.43 | 84 | 1008.8 |
| 20260509193324 | 15 | 49 | 1.6 | 4.8 | 0.00 | 0.43 | 0.43 | 83 | 1008.8 |
| 20260509192825 | 15 | 63 | 1.6 | 3.2 | 0.00 | 0.43 | 0.43 | 84 | 1008.9 |
| 20260509192323 | 15 | 101 | 0.0 | 8.0 | 0.00 | 0.43 | 0.43 | 83 | 1009.0 |
| 20260509191824 | 15 | 101 | 1.6 | 8.0 | 0.00 | 0.43 | 0.43 | 83 | 1009.1 |
| 20260509191344 | 15 | 90 | 1.6 | 4.8 | 0.00 | 0.43 | 0.43 | 85 | 1009.1 |
| 20260509190823 | 15 | 52 | 0.0 | 6.4 | 0.00 | 0.43 | 0.43 | 85 | 1009.1 |
| 20260509190323 | 14 | 192 | 3.2 | 6.4 | 0.00 | 0.43 | 0.43 | 85 | 1009.2 |
| 20260509185824 | 14 | 101 | 4.8 | 9.7 | 0.00 | 0.43 | 0.43 | 86 | 1009.5 |
| 20260509185323 | 14 | 214 | 4.8 | 9.7 | 0.00 | 0.43 | 0.43 | 87 | 1009.6 |
| 20260509184823 | 14 | 119 | 3.2 | 6.4 | 0.00 | 0.43 | 0.43 | 87 | 1009.6 |
| 20260509184342 | 14 | 171 | 1.6 | 6.4 | 0.00 | 0.43 | 0.43 | 87 | 1009.8 |
| 20260509183823 | 13 | 204 | 3.2 | 8.0 | 0.00 | 0.43 | 0.43 | 87 | 1009.7 |
| 20260509183324 | 13 | 200 | 3.2 | 8.0 | 0.00 | 0.43 | 0.43 | 87 | 1009.5 |
| 20260509182824 | 13 | 159 | 4.8 | 6.4 | 0.00 | 0.43 | 0.43 | 87 | 1009.6 |
| 20260509182325 | 13 | 180 | 3.2 | 6.4 | 0.00 | 0.43 | 0.43 | 88 | 1009.5 |
| 20260509181824 | 13 | 184 | 3.2 | 6.4 | 0.00 | 0.43 | 0.43 | 88 | 1009.4 |
| 20260509181345 | 13 | 165 | 4.8 | 6.4 | 0.00 | 0.43 | 0.43 | 88 | 1009.5 |
| 20260509180845 | 13 | 77 | 3.2 | 6.4 | 0.00 | 0.43 | 0.43 | 89 | 1009.4 |
| 20260509180323 | 13 | 81 | 1.6 | 6.4 | 0.00 | 0.43 | 0.43 | 89 | 1009.5 |
| 20260509175822 | 13 | 43 | 3.2 | 4.8 | 0.00 | 0.43 | 0.43 | 89 | 1009.6 |
| 20260509175321 | 13 | 85 | 0.0 | 4.8 | 0.03 | 0.43 | 0.43 | 89 | 1009.6 |
| 20260509174823 | 12 | 128 | 1.6 | 4.8 | 0.03 | 0.43 | 0.43 | 89 | 1009.8 |
| 20260509174340 | 12 | 192 | 1.6 | 4.8 | 0.03 | 0.43 | 0.43 | 89 | 1009.8 |
| 20260509173821 | 12 | 192 | 1.6 | 6.4 | 0.03 | 0.43 | 0.43 | 89 | 1010.0 |
| 20260509173321 | 12 | 192 | 3.2 | 8.0 | 0.03 | 0.43 | 0.43 | 89 | 1010.1 |
| 20260509172841 | 12 | 190 | 4.8 | 8.0 | 0.03 | 0.43 | 0.43 | 89 | 1010.2 |
| 20260509172321 | 12 | 196 | 1.6 | 6.4 | 0.03 | 0.43 | 0.43 | 89 | 1010.2 |
| 20260509171821 | 12 | 189 | 3.2 | 6.4 | 0.03 | 0.43 | 0.43 | 89 | 1010.3 |
| 20260509171342 | 12 | 189 | 3.2 | 9.7 | 0.05 | 0.43 | 0.43 | 89 | 1010.3 |
| 20260509170823 | 12 | 179 | 4.8 | 9.7 | 0.05 | 0.43 | 0.43 | 89 | 1010.3 |
| 20260509170325 | 12 | 210 | 6.4 | 9.7 | 0.05 | 0.43 | 0.43 | 89 | 1010.5 |
| 20260509165826 | 12 | 174 | 6.4 | 11.3 | 0.08 | 0.43 | 0.43 | 89 | 1010.4 |
| 20260509165326 | 12 | 189 | 6.4 | 11.3 | 0.05 | 0.41 | 0.41 | 89 | 1010.4 |
| 20260509164828 | 12 | 180 | 4.8 | 8.0 | 0.08 | 0.41 | 0.41 | 89 | 1010.4 |
| 20260509164330 | 12 | 161 | 4.8 | 8.0 | 0.10 | 0.41 | 0.41 | 89 | 1010.2 |
| 20260509163852 | 12 | 193 | 4.8 | 9.7 | 0.13 | 0.41 | 0.41 | 89 | 1010.2 |
| 20260509163353 | 12 | 113 | 4.8 | 9.7 | 0.18 | 0.41 | 0.41 | 89 | 1010.0 |
| 20260509162827 | 12 | 94 | 1.6 | 9.7 | 0.18 | 0.41 | 0.41 | 89 | 1009.9 |
| 20260509162346 | 12 | 126 | 6.4 | 9.7 | 0.23 | 0.41 | 0.41 | 88 | 1009.9 |
| 20260509161826 | 12 | 40 | 4.8 | 9.7 | 0.28 | 0.41 | 0.41 | 88 | 1009.6 |
| 20260509161324 | 12 | 48 | 4.8 | 8.0 | 0.28 | 0.38 | 0.38 | 88 | 1009.7 |
| 20260509160826 | 12 | 63 | 3.2 | 8.0 | 0.30 | 0.38 | 0.38 | 88 | 1009.8 |
| 20260509160348 | 12 | 59 | 4.8 | 6.4 | 0.30 | 0.38 | 0.38 | 87 | 1010.0 |
| 20260509155826 | 12 | 15 | 3.2 | 6.4 | 0.28 | 0.36 | 0.36 | 88 | 1010.1 |
| 20260509155325 | 12 | 63 | 3.2 | 6.4 | 0.28 | 0.33 | 0.33 | 87 | 1010.1 |
| 20260509154827 | 12 | 86 | 3.2 | 4.8 | 0.28 | 0.33 | 0.33 | 87 | 1010.5 |
| 20260509154345 | 12 | 221 | 1.6 | 3.2 | 0.28 | 0.30 | 0.30 | 86 | 1010.9 |
| 20260509153823 | 12 | 221 | 0.0 | 3.2 | 0.25 | 0.28 | 0.28 | 86 | 1010.9 |
| 20260509153345 | 12 | 221 | 1.6 | 3.2 | 0.20 | 0.23 | 0.23 | 86 | 1011.1 |
| 20260509152825 | 12 | 221 | 0.0 | 3.2 | 0.20 | 0.20 | 0.20 | 85 | 1011.2 |
| 20260509152326 | 12 | 221 | 0.0 | 6.4 | 0.18 | 0.18 | 0.18 | 85 | 1011.3 |
| 20260509151847 | 12 | 222 | 3.2 | 6.4 | 0.13 | 0.13 | 0.13 | 85 | 1011.3 |
| 20260509151325 | 12 | 214 | 3.2 | 6.4 | 0.10 | 0.10 | 0.10 | 84 | 1011.2 |
| 20260509150825 | 12 | 183 | 3.2 | 6.4 | 0.08 | 0.08 | 0.08 | 84 | 1011.0 |
| 20260509150346 | 12 | 153 | 3.2 | 8.0 | 0.08 | 0.08 | 0.08 | 83 | 1010.9 |
| 20260509145826 | 12 | 157 | 3.2 | 4.8 | 0.08 | 0.08 | 0.08 | 83 | 1010.8 |
| 20260509145327 | 12 | 200 | 1.6 | 4.8 | 0.05 | 0.05 | 0.05 | 82 | 1010.9 |
| 20260509144830 | 12 | 180 | 3.2 | 4.8 | 0.05 | 0.05 | 0.05 | 82 | 1010.8 |
| 20260509144325 | 12 | 166 | 1.6 | 4.8 | 0.03 | 0.03 | 0.03 | 81 | 1010.7 |
| 20260509143825 | 12 | 152 | 1.6 | 4.8 | 0.03 | 0.03 | 0.03 | 81 | 1010.6 |
| 20260509143326 | 12 | 192 | 3.2 | 6.4 | 0.03 | 0.03 | 0.03 | 80 | 1010.6 |
| 20260509142812 | 12 | 192 | 3.2 | 6.4 | 0.00 | 0.00 | 0.00 | 79 | 1010.6 |
| 20260509142315 | 13 | 180 | 3.2 | 9.7 | 0.00 | 0.00 | 0.00 | 79 | 1010.6 |
| 20260509141831 | 12 | 194 | 4.8 | 9.7 | 0.00 | 0.00 | 0.00 | 78 | 1010.5 |
| 20260509141351 | 12 | 168 | 3.2 | 8.0 | 0.00 | 0.00 | 0.00 | 79 | 1010.5 |
| 20260509140849 | 12 | 136 | 3.2 | 4.8 | 0.00 | 0.00 | 0.00 | 78 | 1010.5 |
| 20260509140328 | 12 | 158 | 3.2 | 4.8 | 0.00 | 0.00 | 0.00 | 79 | 1010.4 |
| 20260509135829 | 12 | 188 | 3.2 | 4.8 | 0.00 | 0.00 | 0.00 | 79 | 1010.4 |
| 20260509135330 | 12 | 128 | 1.6 | 4.8 | 0.00 | 0.00 | 0.00 | 80 | 1010.5 |
| 20260509134831 | 12 | 128 | 3.2 | 9.7 | 0.00 | 0.00 | 0.00 | 80 | 1010.4 |
| 20260509134312 | 12 | 164 | 4.8 | 8.0 | 0.00 | 0.00 | 0.00 | 81 | 1010.3 |
| 20260509133815 | 12 | 165 | 6.4 | 12.9 | 0.00 | 0.00 | 0.00 | 81 | 1010.4 |
| 20260509133316 | 12 | 136 | 4.8 | 12.9 | 0.00 | 0.00 | 0.00 | 81 | 1010.4 |
| 20260509132815 | 12 | 114 | 4.8 | 11.3 | 0.00 | 0.00 | 0.00 | 81 | 1010.3 |
| 20260509132317 | 12 | 147 | 6.4 | 11.3 | 0.00 | 0.00 | 0.00 | 82 | 1010.4 |
| 20260509131838 | 12 | 165 | 4.8 | 8.0 | 0.00 | 0.00 | 0.00 | 81 | 1010.5 |
| 20260509131320 | 12 | 177 | 4.8 | 11.3 | 0.00 | 0.00 | 0.00 | 82 | 1010.3 |
| 20260509130822 | 12 | 150 | 4.8 | 11.3 | 0.00 | 0.00 | 0.00 | 82 | 1010.1 |
| 20260509130322 | 12 | 142 | 6.4 | 11.3 | 0.00 | 0.00 | 0.00 | 81 | 1009.9 |
| 20260509125823 | 12 | 68 | 3.2 | 6.4 | 0.00 | 0.00 | 0.00 | 81 | 1009.7 |
| 20260509125323 | 12 | 53 | 3.2 | 8.0 | 0.00 | 0.00 | 0.00 | 82 | 1009.7 |
| 20260509124822 | 12 | 24 | 3.2 | 11.3 | 0.00 | 0.00 | 0.00 | 81 | 1009.8 |
| 20260509124323 | 12 | 73 | 8.0 | 12.9 | 0.00 | 0.00 | 0.00 | 80 | 1009.7 |
| 20260509123845 | 12 | 55 | 4.8 | 6.4 | 0.00 | 0.00 | 0.00 | 80 | 1009.9 |
| 20260509123324 | 12 | 191 | 1.6 | 4.8 | 0.00 | 0.00 | 0.00 | 80 | 1010.2 |
| 20260509122826 | 12 | 191 | 0.0 | 1.6 | 0.00 | 0.00 | 0.00 | 79 | 1010.4 |
| 20260509122327 | 12 | 191 | 0.0 | 1.6 | 0.00 | 0.00 | 0.00 | 79 | 1010.4 |
| 20260509121827 | 12 | 191 | 0.0 | 3.2 | 0.00 | 0.00 | 0.00 | 79 | 1010.4 |
| 20260509121349 | 12 | 191 | 1.6 | 3.2 | 0.00 | 0.00 | 0.00 | 79 | 1010.4 |
| 20260509120830 | 12 | 191 | 0.0 | 3.2 | 0.00 | 0.00 | 0.00 | 79 | 1010.3 |
| 20260509120351 | 12 | 191 | 1.6 | 3.2 | 0.00 | 0.00 | 0.00 | 79 | 1010.3 |
| 20260509115831 | 12 | 101 | 1.6 | 3.2 | 0.00 | 0.00 | 0.00 | 79 | 1010.2 |
| 20260509115313 | 12 | 101 | 1.6 | 3.2 | 0.00 | 0.00 | 0.00 | 79 | 1010.0 |
| 20260509114815 | 12 | 101 | 0.0 | 3.2 | 0.00 | 0.00 | 0.00 | 78 | 1010.0 |
| 20260509114316 | 12 | 111 | 1.6 | 3.2 | 0.00 | 0.00 | 0.00 | 78 | 1010.0 |
| 20260509113817 | 11 | 111 | 0.0 | 9.7 | 0.00 | 0.00 | 0.00 | 78 | 1010.1 |
| 20260509113318 | 11 | 111 | 1.6 | 9.7 | 0.00 | 0.00 | 0.00 | 78 | 1010.0 |
| 20260509112341 | 11 | 96 | 3.2 | 4.8 | 0.00 | 0.00 | 0.00 | 78 | 1010.0 |
| 20260509111820 | 11 | 118 | 1.6 | 11.3 | 0.00 | 0.00 | 0.00 | 79 | 1009.9 |
| 20260509111319 | 11 | 118 | 6.4 | 11.3 | 0.00 | 0.00 | 0.00 | 80 | 1009.8 |
| 20260509110819 | 11 | 126 | 3.2 | 6.4 | 0.00 | 0.00 | 0.00 | 80 | 1009.8 |
| 20260509110319 | 11 | 108 | 1.6 | 9.7 | 0.00 | 0.00 | 0.00 | 80 | 1010.0 |
| 20260509105822 | 11 | 90 | 3.2 | 9.7 | 0.00 | 0.00 | 0.00 | 80 | 1009.7 |
| 20260509105322 | 11 | 86 | 3.2 | 6.4 | 0.00 | 0.00 | 0.00 | 80 | 1009.6 |
| 20260509104822 | 11 | 71 | 4.8 | 6.4 | 0.00 | 0.00 | 0.00 | 80 | 1009.5 |
| 20260509104322 | 11 | 92 | 3.2 | 4.8 | 0.00 | 0.00 | 0.00 | 79 | 1009.7 |
| 20260509103823 | 11 | 80 | 1.6 | 6.4 | 0.00 | 0.00 | 0.00 | 79 | 1009.6 |
| 20260509103324 | 11 | 81 | 4.8 | 6.4 | 0.00 | 0.00 | 0.00 | 79 | 1009.6 |
| 20260509102823 | 11 | 17 | 1.6 | 4.8 | 0.00 | 0.00 | 0.00 | 79 | 1009.7 |
| 20260509102323 | 11 | 355 | 3.2 | 4.8 | 0.00 | 0.00 | 0.00 | 79 | 1009.6 |
| 20260509101822 | 11 | 53 | 1.6 | 4.8 | 0.00 | 0.00 | 0.00 | 79 | 1009.6 |
| 20260509101320 | 11 | 55 | 0.0 | 3.2 | 0.00 | 0.00 | 0.00 | 78 | 1009.6 |
| 20260509100822 | 11 | 36 | 1.6 | 4.8 | 0.00 | 0.00 | 0.00 | 78 | 1009.6 |
| 20260509100322 | 11 | 36 | 1.6 | 4.8 | 0.00 | 0.00 | 0.00 | 78 | 1009.7 |
| 20260509095823 | 11 | 86 | 3.2 | 3.2 | 0.00 | 0.00 | 0.00 | 78 | 1009.5 |
| 20260509095323 | 11 | 86 | 1.6 | 3.2 | 0.00 | 0.00 | 0.00 | 77 | 1009.5 |
| 20260509094821 | 11 | 86 | 1.6 | 4.8 | 0.00 | 0.00 | 0.00 | 77 | 1009.5 |
| 20260509094320 | 11 | 86 | 1.6 | 9.7 | 0.00 | 0.00 | 0.00 | 77 | 1009.5 |
| 20260509093821 | 11 | 77 | 3.2 | 6.4 | 0.00 | 0.00 | 0.00 | 77 | 1009.5 |
| 20260509093322 | 11 | 51 | 3.2 | 3.2 | 0.00 | 0.00 | 0.00 | 77 | 1009.7 |
| 20260509092844 | 11 | 67 | 1.6 | 3.2 | 0.00 | 0.00 | 0.00 | 76 | 1009.7 |
| 20260509092325 | 11 | 67 | 0.0 | 4.8 | 0.00 | 0.00 | 0.00 | 75 | 1009.8 |
| 20260509091826 | 11 | 67 | 0.0 | 4.8 | 0.00 | 0.00 | 0.00 | 75 | 1009.7 |
| 20260509091328 | 11 | 67 | 1.6 | 4.8 | 0.00 | 0.00 | 0.00 | 75 | 1009.6 |
| 20260509090829 | 11 | 67 | 3.2 | 4.8 | 0.00 | 0.00 | 0.00 | 74 | 1009.6 |
| 20260509090329 | 11 | 67 | 3.2 | 6.4 | 0.00 | 0.00 | 0.00 | 74 | 1009.6 |
| 20260509085830 | 11 | 91 | 3.2 | 9.7 | 0.00 | 0.00 | 0.00 | 74 | 1009.6 |
| 20260509085331 | 11 | 62 | 3.2 | 9.7 | 0.00 | 0.00 | 0.00 | 73 | 1009.6 |
| 20260509084814 | 12 | 59 | 3.2 | 6.4 | 0.00 | 0.00 | 0.00 | 73 | 1009.7 |
| 20260509084335 | 12 | 31 | 4.8 | 11.3 | 0.00 | 0.00 | 0.00 | 72 | 1009.8 |
| 20260509083815 | 12 | 74 | 4.8 | 12.9 | 0.00 | 0.00 | 0.00 | 72 | 1009.8 |
| 20260509083316 | 12 | 87 | 4.8 | 12.9 | 0.00 | 0.00 | 0.00 | 72 | 1009.8 |
| 20260509082817 | 12 | 75 | 6.4 | 12.9 | 0.00 | 0.00 | 0.00 | 72 | 1009.9 |
| 20260509082318 | 12 | 102 | 6.4 | 14.5 | 0.00 | 0.00 | 0.00 | 72 | 1009.8 |
| 20260509081820 | 12 | 98 | 8.0 | 14.5 | 0.00 | 0.00 | 0.00 | 73 | 1009.7 |
| 20260509081320 | 12 | 104 | 6.4 | 14.5 | 0.00 | 0.00 | 0.00 | 73 | 1009.8 |
| 20260509080822 | 11 | 96 | 8.0 | 14.5 | 0.00 | 0.00 | 0.00 | 75 | 1009.8 |
| 20260509080324 | 11 | 114 | 4.8 | 11.3 | 0.00 | 0.00 | 0.00 | 77 | 1009.9 |
| 20260509075825 | 10 | 92 | 4.8 | 6.4 | 0.00 | 0.00 | 0.00 | 78 | 1010.0 |
| 20260509075347 | 10 | 80 | 1.6 | 3.2 | 0.00 | 0.00 | 0.00 | 78 | 1009.9 |
| 20260509074827 | 10 | 35 | 1.6 | 3.2 | 0.00 | 0.00 | 0.00 | 78 | 1010.0 |
| 20260509074328 | 10 | 66 | 1.6 | 3.2 | 0.00 | 0.00 | 0.00 | 77 | 1010.0 |
| 20260509073827 | 10 | 66 | 1.6 | 3.2 | 0.00 | 0.00 | 0.00 | 77 | 1010.0 |
| 20260509073328 | 10 | 66 | 0.0 | 1.6 | 0.00 | 0.00 | 0.00 | 77 | 1010.1 |
| 20260509072828 | 10 | 66 | 0.0 | 3.2 | 0.00 | 0.00 | 0.00 | 77 | 1010.0 |
| 20260509072326 | 10 | 66 | 1.6 | 3.2 | 0.00 | 0.00 | 0.00 | 77 | 1010.1 |
| 20260509071828 | 10 | 15 | 0.0 | 4.8 | 0.00 | 0.00 | 0.00 | 77 | 1010.1 |
| 20260509071345 | 11 | 15 | 3.2 | 6.4 | 0.00 | 0.00 | 0.00 | 76 | 1010.2 |
| 20260509070823 | 11 | 17 | 3.2 | 6.4 | 0.00 | 0.00 | 0.00 | 73 | 1010.3 |
| 20260509070326 | 11 | 29 | 3.2 | 4.8 | 0.00 | 0.00 | 0.00 | 73 | 1010.3 |
| 20260509065827 | 11 | 78 | 3.2 | 4.8 | 0.00 | 0.00 | 0.00 | 72 | 1010.3 |
| 20260509065327 | 11 | 58 | 1.6 | 4.8 | 0.00 | 0.00 | 0.00 | 72 | 1010.3 |
| 20260509064827 | 11 | 57 | 3.2 | 4.8 | 0.00 | 0.00 | 0.00 | 71 | 1010.3 |
| 20260509064328 | 11 | 69 | 3.2 | 4.8 | 0.00 | 0.00 | 0.00 | 72 | 1010.4 |
| 20260509063844 | 11 | 69 | 3.2 | 4.8 | 0.00 | 0.00 | 0.00 | 72 | 1010.4 |
| 20260509063324 | 11 | 55 | 1.6 | 6.4 | 0.00 | 0.00 | 0.00 | 72 | 1010.5 |
| 20260509062826 | 11 | 27 | 3.2 | 6.4 | 0.00 | 0.00 | 0.00 | 72 | 1010.5 |
| 20260509062312 | 11 | 61 | 3.2 | 6.4 | 0.00 | 0.00 | 0.00 | 71 | 1010.5 |
| 20260509061812 | 12 | 59 | 1.6 | 6.4 | 0.00 | 0.00 | 0.00 | 71 | 1010.6 |
| 20260509061312 | 12 | 59 | 3.2 | 6.4 | 0.00 | 0.00 | 0.00 | 71 | 1010.6 |
| 20260509060830 | 12 | 59 | 1.6 | 4.8 | 0.00 | 0.00 | 0.00 | 71 | 1010.4 |
| 20260509060350 | 12 | 36 | 1.6 | 6.4 | 0.00 | 0.00 | 0.00 | 71 | 1010.4 |
| 20260509055831 | 12 | 67 | 3.2 | 8.0 | 0.00 | 0.00 | 0.00 | 71 | 1010.6 |
| 20260509055329 | 12 | 53 | 3.2 | 8.0 | 0.00 | 0.00 | 0.00 | 71 | 1010.6 |
| 20260509054829 | 12 | 48 | 1.6 | 6.4 | 0.00 | 0.00 | 0.00 | 71 | 1010.6 |
| 20260509054331 | 12 | 34 | 3.2 | 8.0 | 0.00 | 0.00 | 0.00 | 71 | 1010.5 |
| 20260509053812 | 12 | 20 | 4.8 | 8.0 | 0.00 | 0.00 | 0.00 | 71 | 1010.6 |
| 20260509053333 | 12 | 62 | 4.8 | 6.4 | 0.00 | 0.00 | 0.00 | 71 | 1010.6 |
| 20260509052812 | 12 | 50 | 1.6 | 6.4 | 0.00 | 0.00 | 0.00 | 71 | 1010.7 |
| 20260509052313 | 12 | 49 | 3.2 | 6.4 | 0.00 | 0.00 | 0.00 | 71 | 1010.7 |
| 20260509051814 | 12 | 46 | 3.2 | 9.7 | 0.00 | 0.00 | 0.00 | 71 | 1010.8 |
| 20260509051313 | 12 | 53 | 4.8 | 9.7 | 0.00 | 0.00 | 0.00 | 71 | 1010.8 |
| 20260509050834 | 12 | 81 | 4.8 | 6.4 | 0.00 | 0.00 | 0.00 | 71 | 1010.8 |
| 20260509050314 | 12 | 60 | 3.2 | 6.4 | 0.00 | 0.00 | 0.00 | 71 | 1010.9 |
| 20260509045813 | 12 | 51 | 1.6 | 6.4 | 0.00 | 0.00 | 0.00 | 71 | 1011.0 |
| 20260509045313 | 12 | 54 | 3.2 | 6.4 | 0.00 | 0.00 | 0.00 | 71 | 1011.0 |
| 20260509044815 | 12 | 59 | 4.8 | 6.4 | 0.00 | 0.00 | 0.00 | 70 | 1011.0 |
| 20260509044316 | 12 | 87 | 3.2 | 4.8 | 0.00 | 0.00 | 0.00 | 70 | 1011.1 |
| 20260509043815 | 12 | 65 | 1.6 | 6.4 | 0.00 | 0.00 | 0.00 | 70 | 1010.9 |
| 20260509043316 | 12 | 87 | 3.2 | 6.4 | 0.00 | 0.00 | 0.00 | 71 | 1010.9 |
| 20260509042817 | 12 | 107 | 4.8 | 6.4 | 0.00 | 0.00 | 0.00 | 72 | 1010.9 |
| 20260509042319 | 12 | 78 | 3.2 | 6.4 | 0.00 | 0.00 | 0.00 | 71 | 1010.9 |
| 20260509041819 | 12 | 57 | 1.6 | 6.4 | 0.00 | 0.00 | 0.00 | 72 | 1010.9 |
| 20260509041339 | 12 | 30 | 3.2 | 8.0 | 0.00 | 0.00 | 0.00 | 72 | 1010.8 |
| 20260509040839 | 12 | 55 | 4.8 | 9.7 | 0.00 | 0.00 | 0.00 | 73 | 1010.7 |
| 20260509040336 | 12 | 49 | 3.2 | 9.7 | 0.00 | 0.00 | 0.00 | 73 | 1010.8 |
| 20260509035829 | 12 | 41 | 4.8 | 9.7 | 0.00 | 0.00 | 0.00 | 74 | 1010.9 |
| 20260509035351 | 12 | 25 | 3.2 | 4.8 | 0.00 | 0.00 | 0.00 | 72 | 1011.1 |
| 20260509034832 | 13 | 52 | 1.6 | 4.8 | 0.00 | 0.00 | 0.00 | 71 | 1011.1 |
| 20260509034352 | 13 | 61 | 3.2 | 4.8 | 0.00 | 0.00 | 0.00 | 70 | 1011.2 |
| 20260509033832 | 13 | 103 | 3.2 | 4.8 | 0.00 | 0.00 | 0.00 | 70 | 1011.2 |
| 20260509033332 | 12 | 70 | 3.2 | 3.2 | 0.00 | 0.00 | 0.00 | 71 | 1011.3 |
| 20260509032833 | 12 | 51 | 0.0 | 3.2 | 0.00 | 0.00 | 0.00 | 71 | 1011.3 |
| 20260509032314 | 12 | 51 | 1.6 | 3.2 | 0.00 | 0.00 | 0.00 | 71 | 1011.1 |
| 20260509031815 | 12 | 67 | 1.6 | 3.2 | 0.00 | 0.00 | 0.00 | 70 | 1011.3 |
| 20260509031315 | 12 | 32 | 0.0 | 3.2 | 0.00 | 0.00 | 0.00 | 70 | 1011.3 |
| 20260509030815 | 12 | 26 | 1.6 | 3.2 | 0.00 | 0.00 | 0.00 | 70 | 1011.4 |
| 20260509030315 | 12 | 5 | 0.0 | 3.2 | 0.00 | 0.00 | 0.00 | 71 | 1011.5 |
| 20260509025836 | 12 | 192 | 0.0 | 0.0 | 0.00 | 0.00 | 0.00 | 70 | 1011.4 |
| 20260509025317 | 12 | 192 | 0.0 | 0.0 | 0.00 | 0.00 | 0.00 | 69 | 1011.4 |
| 20260509024838 | 12 | 192 | 0.0 | 1.6 | 0.00 | 0.00 | 0.00 | 70 | 1011.3 |
| 20260509024319 | 12 | 192 | 0.0 | 4.8 | 0.00 | 0.00 | 0.00 | 71 | 1011.3 |
| 20260509023819 | 12 | 192 | 3.2 | 4.8 | 0.00 | 0.00 | 0.00 | 69 | 1011.3 |
| 20260509023320 | 12 | 31 | 0.0 | 3.2 | 0.00 | 0.00 | 0.00 | 67 | 1010.9 |
| 20260509022823 | 12 | 31 | 0.0 | 3.2 | 0.00 | 0.00 | 0.00 | 67 | 1010.9 |
| 20260509022324 | 12 | 31 | 0.0 | 0.0 | 0.00 | 0.00 | 0.00 | 65 | 1010.8 |
| 20260509021824 | 13 | 31 | 0.0 | 3.2 | 0.00 | 0.00 | 0.00 | 65 | 1010.9 |
| 20260509021325 | 13 | 31 | 0.0 | 3.2 | 0.00 | 0.00 | 0.00 | 66 | 1010.8 |
| 20260509020828 | 13 | 31 | 0.0 | 3.2 | 0.00 | 0.00 | 0.00 | 65 | 1010.7 |
| 20260509020329 | 13 | 31 | 0.0 | 3.2 | 0.00 | 0.00 | 0.00 | 66 | 1010.7 |
| 20260509015830 | 13 | 31 | 1.6 | 3.2 | 0.00 | 0.00 | 0.00 | 66 | 1010.8 |
| 20260509015331 | 13 | 31 | 1.6 | 3.2 | 0.00 | 0.00 | 0.00 | 66 | 1010.9 |
| 20260509014832 | 13 | 31 | 1.6 | 3.2 | 0.00 | 0.00 | 0.00 | 65 | 1011.0 |
| 20260509014312 | 13 | 31 | 1.6 | 3.2 | 0.00 | 0.00 | 0.00 | 65 | 1010.9 |
| 20260509013812 | 13 | 31 | 3.2 | 3.2 | 0.00 | 0.00 | 0.00 | 65 | 1010.9 |
| 20260509013314 | 13 | 31 | 0.0 | 3.2 | 0.00 | 0.00 | 0.00 | 65 | 1010.9 |
| 20260509012832 | 13 | 31 | 0.0 | 1.6 | 0.00 | 0.00 | 0.00 | 64 | 1010.9 |
| 20260509012312 | 13 | 31 | 0.0 | 3.2 | 0.00 | 0.00 | 0.00 | 64 | 1010.9 |
| 20260509011813 | 13 | 31 | 0.0 | 3.2 | 0.00 | 0.00 | 0.00 | 64 | 1010.8 |
| 20260509011314 | 13 | 31 | 1.6 | 3.2 | 0.00 | 0.00 | 0.00 | 64 | 1010.8 |
| 20260509010815 | 13 | 31 | 1.6 | 3.2 | 0.00 | 0.00 | 0.00 | 63 | 1010.7 |
| 20260509010340 | 13 | 31 | 0.0 | 3.2 | 0.00 | 0.00 | 0.00 | 62 | 1010.7 |
| 20260509005840 | 13 | 31 | 0.0 | 3.2 | 0.00 | 0.00 | 0.00 | 63 | 1010.6 |
| 20260509005337 | 13 | 31 | 1.6 | 3.2 | 0.00 | 0.00 | 0.00 | 63 | 1010.7 |
| 20260509004837 | 13 | 31 | 1.6 | 3.2 | 0.00 | 0.00 | 0.00 | 63 | 1010.7 |
| 20260509004318 | 13 | 31 | 1.6 | 3.2 | 0.00 | 0.00 | 0.00 | 63 | 1010.7 |
| 20260509003821 | 13 | 31 | 1.6 | 3.2 | 0.00 | 0.00 | 0.00 | 62 | 1010.6 |
| 20260509003342 | 13 | 31 | 1.6 | 4.8 | 0.00 | 0.00 | 0.00 | 62 | 1010.6 |
| 20260509002822 | 13 | 31 | 1.6 | 4.8 | 0.00 | 0.00 | 0.00 | 62 | 1010.6 |
| 20260509002322 | 14 | 26 | 0.0 | 4.8 | 0.00 | 0.00 | 0.00 | 60 | 1010.5 |
| 20260509001824 | 14 | 33 | 1.6 | 4.8 | 0.00 | 0.00 | 0.00 | 60 | 1010.5 |
| 20260509001346 | 14 | 33 | 1.6 | 3.2 | 0.00 | 0.00 | 0.00 | 59 | 1010.5 |
| 20260509000825 | 14 | 355 | 0.0 | 3.2 | 0.00 | 0.00 | 0.00 | 58 | 1010.5 |
| 20260509000327 | 15 | 355 | 0.0 | 4.8 | 0.00 | 0.00 | 0.00 | 58 | 1010.4 |
| 20260508235830 | 15 | 350 | 1.6 | 4.8 | 0.00 | 0.00 | 0.00 | 56 | 1010.4 |
| 20260508235330 | 15 | 342 | 0.0 | 4.8 | 0.00 | 0.00 | 0.00 | 55 | 1010.4 |
| 20260508234812 | 15 | 5 | 1.6 | 4.8 | 0.00 | 0.00 | 0.00 | 54 | 1010.2 |
| 20260508234315 | 15 | 355 | 1.6 | 6.4 | 0.00 | 0.00 | 0.00 | 54 | 1010.1 |
| 20260508233817 | 15 | 355 | 1.6 | 12.9 | 0.00 | 0.00 | 0.00 | 53 | 1010.1 |
| 20260508233339 | 16 | 296 | 6.4 | 12.9 | 0.00 | 0.00 | 0.00 | 52 | 1010.1 |
| 20260508232818 | 16 | 318 | 1.6 | 9.7 | 0.00 | 0.00 | 0.00 | 52 | 1009.7 |
| 20260508232317 | 16 | 345 | 3.2 | 16.1 | 0.00 | 0.00 | 0.00 | 52 | 1009.8 |
| 20260508231822 | 16 | 346 | 9.7 | 16.1 | 0.00 | 0.00 | 0.00 | 50 | 1009.8 |
| 20260508231327 | 16 | 333 | 1.6 | 8.0 | 0.00 | 0.00 | 0.00 | 47 | 1009.7 |
| 20260508230825 | 16 | 304 | 1.6 | 4.8 | 0.00 | 0.00 | 0.00 | 47 | 1009.8 |
| 20260508230320 | 16 | 327 | 0.0 | 4.8 | 0.00 | 0.00 | 0.00 | 47 | 1009.8 |
| 20260508225818 | 16 | 302 | 1.6 | 6.4 | 0.00 | 0.00 | 0.00 | 47 | 1009.7 |
| 20260508225318 | 16 | 337 | 1.6 | 6.4 | 0.00 | 0.00 | 0.00 | 46 | 1009.9 |
| 20260508224815 | 16 | 328 | 1.6 | 4.8 | 0.00 | 0.00 | 0.00 | 46 | 1009.8 |